Regional Weather Roundup
Issued by NWS Kansas City/Pleasant Hill, MO

Home | Current Version | Previous Version | Graphics & Text | Print | Product List | Glossary Off
Versions: 1 2 3 4 5 6 7 8 9 10 11 12 13 14 15 16 17 18 19 20 21 22 23 24 25 26 27 28 29 30 31 32 33 34 35 36 37 38 39 40 41 42 43 44 45 46 47 48 49 50

000
ASUS43 KEAX 041210
RWREAX

WEATHER ROUNDUP FOR EASTERN KANSAS AND NORTHWEST MISSOURI
NATIONAL WEATHER SERVICE KANSAS CITY/PLEASANT HILL MO
600 AM CST SUN DEC 04 2016

KSZ040-057-103>105-MOZ028-029-037-043-041300-
...KANSAS CITY METROPOLITAN AREA...

CITY           SKY/WX    TMP DP  RH WIND       PRES   REMARKS
K.C. INTL      LGT RAIN  38  35  89 SW6       30.01F WCI  33
6HR MIN TEMP:  38; 6HR MAX TEMP:  41; 6HR PCP:  0.48;

K.C. DOWNTOWN  LGT RAIN  40  38  93 S6        30.03S
6HR MIN TEMP:  40; 6HR MAX TEMP:  43; 6HR PCP:  0.14;

LEES SUMMIT    LGT RAIN  39  37  92 SW7       30.02S WCI  34
6HR MIN TEMP:  38; 6HR MAX TEMP:  41; 6HR PCP: TRACE;

OLATHE - IXD   RAIN      39  38  96 S7        30.03S FOG     WCI  34
6HR MIN TEMP:  38; 6HR MAX TEMP:  40; 6HR PCP:  0.34;

OLATHE - OJC   LGT RAIN  38  37  97 SW6       30.02S WCI  33
6HR MIN TEMP:  38; 6HR MAX TEMP:  39; 6HR PCP:  0.35;

LAWRENCE       LGT RAIN  39  38  96 CALM      30.02F FOG

$$

MOZ001>008-011>017-020>025-030>033-038>040-044>046-053-054-041300-
...NORTHERN AND CENTRAL MISSOURI...

CITY           SKY/WX    TMP DP  RH WIND       PRES   REMARKS
ST. JOSEPH     LGT RAIN  39  36  89 W8        30.02F WCI  33
6HR MIN TEMP:  39; 6HR MAX TEMP:  40; 6HR PCP:  0.42;

MOSBY          HVY RAIN  37  37 100 S3        30.03S
WARRENSBURG    LGT RAIN  37  36  93 SE7       30.02F WCI  32
WHITEMAN AFB   LGT RAIN  38  38 100 S6        30.01F WCI  33
6HR MIN TEMP:  38; 6HR MAX TEMP:  41; 6HR PCP:  0.15;

CLINTON        LGT RAIN  37  37 100 SE5       30.03F WCI  34
SEDALIA        LGT RAIN  38  36  92 SE6       30.03F FOG     WCI  33
6HR MIN TEMP:  38; 6HR MAX TEMP:  42; 6HR PCP:  0.07;

WARSAW         NOT AVBL
CHILLICOTHE      N/A     37  36  96 VRB5      30.05F WCI  33
6HR MIN TEMP:  37; 6HR MAX TEMP:  42; 6HR PCP:  0.22;

KIRKSVILLE     LGT SNOW  33  33 100 SE7       30.04F FOG     WCI  27
6HR MIN TEMP:  33; 6HR MAX TEMP:  39; 6HR PCP:  0.14;


$$

MOZ041-047>049-056>058-063>065-088>090-097-041300-
...EASTERN AND SOUTHERN MISSOURI...

CITY           SKY/WX    TMP DP  RH WIND       PRES   REMARKS
ST. LOUIS INTL CLOUDY    39  33  79 E8        30.08F WCI  33
6HR MIN TEMP:  39; 6HR MAX TEMP:  41; 6HR PCP:  0.01;

SPIRIT OF STL  CLOUDY    38  36  92 E3        30.08F FOG
COLUMBIA       LGT RAIN  37  36  96 SE7       30.03F FOG     WCI  32
JEFFERSON CITY LGT RAIN  37  36  96 E6        30.05F FOG     WCI  32
ROLLA          CLOUDY    35  35 100 E7        30.00F FOG     WCI  29
OSAGE BEACH    MIX PCPN  37  36  96 E3        30.03F FOG
SPRINGFIELD    LGT RAIN  38  37  97 SW5       29.99S FOG     WCI  34
BRANSON        CLOUDY    37  37 100 SE5       30.00R FOG     WCI  34
JOPLIN         LGT RAIN  40  40 100 CALM      30.00F FOG
WEST PLAINS    CLOUDY    37  36  96 E6        29.99F FOG     WCI  32

$$

IAZ060-094-KSZ022-034>040-054-083-096-NEZ052-066-093-041300-
...KANSAS...SOUTHEAST NEBRASKA AND IOWA...

CITY           SKY/WX    TMP DP  RH WIND       PRES   REMARKS
TOPEKA         LGT RAIN  40  36  86 W3        30.03S
6HR MIN TEMP:  40; 6HR MAX TEMP:  41; 6HR PCP:  0.38;

MANHATTAN      CLOUDY    39  38  96 CALM      30.01F
EMPORIA        LGT RAIN  38  37  97 NW3       30.02R
CHANUTE        LGT RAIN  41  40  96 CALM      30.02F FOG
WICHITA        CLOUDY    41  39  93 NW3       30.02F
OMAHA          CLOUDY    34  30  85 CALM      29.98F
LINCOLN        CLOUDY    34  32  92 SW5       29.99F WCI  30
FALLS CITY     LGT RAIN  37  37 100 W5        29.99F WCI  33
LAMONI         LGT SNOW  33  32  96 S8        30.00F FOG     WCI  26
DES MOINES     LGT SNOW  34  33  96 S9        30.00F FOG     WCI  27

$$




USA.gov is the U.S. government's official web portal to all federal, state and local government web resources and services.